STARLINK-1226, 45229

Orbit data source: Space-Track

STARLINK-1226, 45229 is a payload satellite owned by SpaceX/Seattle (US) in LEO that was launched on Mon, 17 Feb 2020 UTC via an FALCON 9 launch vehicle from the Air Force Eastern Test Range (AFETR). Payload-class satellites include a variety of spacecraft equipped with specific instruments for various scientific and technological missions. These include communications satellites like Starlink; space stations such as the ISS; scientific satellites like the Hubble; Earth observation satellites from companies like Planet Labs, Umbra, and HawkEye 360; GPS; miniature CubeSats for education and research; and military/defense satellites.

Loading next visibility...
Identifier
45229, 2020-012BD
Orbit
LEO
Country
Flag of USUS
Related business
Manufacturer
SpaceX/Seattle
Mission
Partially operational Commercial Communications
Bus & Motor
STARLINK, Unknown motor
Mass
260 kg wet, ~248 kg dry
Launch date (UTC)
2020-02-17 (6 years ago)
Launch vehicle
FALCON 9
Launch site
Air Force Eastern Test Range (AFETR)
Object type
Payload
Rocket body
Debris
Shape & HBR
Box + 1 Pan, 10.1 m
Radar Cross Section
13.562 m², Large (>1 m²)

Expand to show TLE details & history
Last TLE update: 8 hours ago

TLE from 8 hours ago
0 STARLINK-1226
1 45229U 20012BD  26124.63417542  .00065307  00000-0  15806-2 0  9997
2 45229  53.1573  96.3463 0003412  76.3359 283.8026 15.40528666344016
Epoch: 2026-05-04T15:13Z
TLE epoch observation values (Epoch: 2026-05-04T15:13:12.756Z)
Latitude
-0.00001°
Longitude
5.52258°
Altitude
444.897 km
Speed
7.647 km/s
True Right ascension
06h 25m 23s
True Declination
0° 00' 00"
Sunlit
Object was in daylight at epoch
Visualization orbit readout
Latitude
Unknown
Longitude
Unknown
Altitude
Unknown
Speed
Unknown
Apparent Right ascension
Unknown
Apparent Declination
Unknown
Sunlit
N/A
Visualization observer readout
Local Sidereal Time
06:41:02
Azimuth
Unknown
Elevation
Unknown
Doppler factor
Unknown
Orbital elements
Apogee altitude
447.134 km
Perigee altitude
442.478 km
Semi-major axis
6,822.943 km
Eccentricity
0.00034
Inclination
53.1573°
RAAN
96.3463°
Arg. of periapsis
76.3359°
True anomaly
283.76463°
Mean anomaly
283.8026°
Eccentric anomaly
283.78361°
Mean motion
3.85111 °/min
Orbital period
93.48 mins
BSTAR
0.0015806
Loading maneuver chart data...
Computing Atmospheric mass density...
Loading historical data...
Loading historical data...
Loading historical data...
Loading historical data...
Loading historical data...
Loading historical data...
Loading historical data...

Documentation

Showing up to 5 results
|